When you browse on this site, cookies collect data to enhance your experience and personalize the content and advertising you see.
Visit our Privacy Policy to learn more. By continuing to use the site, you agree to this use of cookies and data.
  • In Österreich
  • Länderverzeichnis
  • Für 7 Tage
  • Wassertemperatur
  • Wetterkarte
  • News
  • Widgets
  • user-avatar
    Anmelden

    Stündliche Wetter San Antonio del Tequendama

    Heute, 23 September, Montag

    Zeit Temperatur Niederschläge Wind Luftdruck Luftfeuchtigkeit
    00:00 +20°C° 0.4 mm 1 m/S 644 mmHg 80%
    01:00 +19°C° 0 mm 1 m/S 644 mmHg 81%
    02:00 +19°C° 0.4 mm 1 m/S 644 mmHg 81%
    03:00 +19°C° 0.4 mm 1 m/S 643 mmHg 81%
    04:00 +19°C° 0.4 mm 1 m/S 643 mmHg 82%
    05:00 +19°C° 0.3 mm 1 m/S 644 mmHg 80%
    06:00 +20°C° 0.3 mm 1 m/S 645 mmHg 79%
    07:00 +21°C° 0.3 mm 1 m/S 645 mmHg 77%
    08:00 +22°C° 0.1 mm 1 m/S 645 mmHg 73%
    09:00 +24°C° 0.1 mm 1 m/S 646 mmHg 69%
    10:00 +25°C° 0.1 mm 1 m/S 646 mmHg 65%
    11:00 +25°C° 0.4 mm 2 m/S 645 mmHg 67%
    12:00 +26°C° 0.4 mm 2 m/S 644 mmHg 68%
    13:00 +26°C° 0.4 mm 2 m/S 644 mmHg 70%
    14:00 +26°C° 0.4 mm 2 m/S 643 mmHg 70%
    15:00 +25°C° 0.4 mm 1 m/S 643 mmHg 70%
    16:00 +25°C° 0.4 mm 1 m/S 642 mmHg 70%
    17:00 +24°C° 0.3 mm 1 m/S 642 mmHg 72%
    18:00 +23°C° 0.3 mm 1 m/S 643 mmHg 74%
    19:00 +22°C° 0.3 mm 1 m/S 643 mmHg 76%
    20:00 +22°C° 0.1 mm 1 m/S 643 mmHg 76%
    21:00 +22°C° 0.1 mm 1 m/S 644 mmHg 76%
    22:00 +22°C° 0.1 mm 1 m/S 644 mmHg 76%
    23:00 +21°C° 0.1 mm 1 m/S 644 mmHg 77%

    Morgen, 24 September, Dienstag

    Zeit Temperatur Niederschläge Wind Luftdruck Luftfeuchtigkeit
    00:00 +19°C° 0.1 mm 0 m/S 644 mmHg 79%
    01:00 +19°C° 0.1 mm 0 m/S 644 mmHg 80%
    02:00 +18°C° 0 mm 0 m/S 643 mmHg 82%
    03:00 +18°C° 0 mm 0 m/S 643 mmHg 83%
    04:00 +17°C° 0 mm 0 m/S 643 mmHg 84%
    05:00 +18°C° 0 mm 0 m/S 644 mmHg 83%
    06:00 +18°C° 0 mm 0 m/S 644 mmHg 82%
    07:00 +19°C° 0 mm 0 m/S 645 mmHg 80%
    08:00 +22°C° 0.2 mm 1 m/S 645 mmHg 79%
    09:00 +23°C° 0.2 mm 1 m/S 646 mmHg 77%
    10:00 +24°C° 0.2 mm 2 m/S 646 mmHg 75%
    11:00 +24°C° 0.8 mm 2 m/S 646 mmHg 75%
    12:00 +24°C° 0.8 mm 2 m/S 645 mmHg 75%
    13:00 +25°C° 0.8 mm 2 m/S 644 mmHg 75%
    14:00 +24°C° 0.7 mm 2 m/S 643 mmHg 75%
    15:00 +24°C° 0.7 mm 2 m/S 643 mmHg 75%
    16:00 +24°C° 0.7 mm 1 m/S 642 mmHg 75%
    17:00 +23°C° 0.2 mm 1 m/S 642 mmHg 78%
    18:00 +22°C° 0.2 mm 1 m/S 643 mmHg 81%
    19:00 +21°C° 0.2 mm 1 m/S 643 mmHg 84%
    20:00 +21°C° 0 mm 1 m/S 643 mmHg 83%
    21:00 +21°C° 0 mm 1 m/S 644 mmHg 81%
    22:00 +21°C° 0 mm 1 m/S 644 mmHg 79%
    23:00 +21°C° 0.1 mm 1 m/S 644 mmHg 80%

    übermorgen, 25 September, Mittwoch

    Zeit Temperatur Niederschläge Wind Luftdruck Luftfeuchtigkeit
    00:00 +21°C° 0.1 mm 1 m/S 644 mmHg 82%
    01:00 +20°C° 0.1 mm 1 m/S 643 mmHg 83%
    02:00 +20°C° 0.1 mm 1 m/S 643 mmHg 83%
    03:00 +21°C° 0.1 mm 1 m/S 643 mmHg 83%
    04:00 +21°C° 0.1 mm 1 m/S 643 mmHg 83%
    05:00 +21°C° 0.2 mm 1 m/S 644 mmHg 83%
    06:00 +19°C° 0.2 mm 0 m/S 644 mmHg 82%
    07:00 +19°C° 0.2 mm 0 m/S 645 mmHg 82%
    08:00 +22°C° 0.3 mm 1 m/S 645 mmHg 79%
    09:00 +23°C° 0.3 mm 1 m/S 646 mmHg 76%
    10:00 +24°C° 0.3 mm 1 m/S 646 mmHg 73%
    11:00 +25°C° 0.9 mm 1 m/S 645 mmHg 73%
    12:00 +25°C° 0.9 mm 1 m/S 644 mmHg 73%
    13:00 +26°C° 0.9 mm 2 m/S 643 mmHg 72%
    14:00 +26°C° 1.1 mm 1 m/S 643 mmHg 73%
    15:00 +26°C° 1.1 mm 1 m/S 643 mmHg 73%
    16:00 +25°C° 1.1 mm 1 m/S 642 mmHg 74%
    17:00 +24°C° 1.1 mm 1 m/S 642 mmHg 79%
    18:00 +23°C° 1.1 mm 1 m/S 642 mmHg 83%
    19:00 +21°C° 1.1 mm 1 m/S 643 mmHg 88%
    20:00 +21°C° 0.2 mm 1 m/S 643 mmHg 87%
    21:00 +20°C° 0.2 mm 1 m/S 644 mmHg 86%
    22:00 +20°C° 0.2 mm 1 m/S 644 mmHg 85%
    23:00 +20°C° 0 mm 1 m/S 644 mmHg 85%

    26 September, Donnerstag

    Zeit Temperatur Niederschläge Wind Luftdruck Luftfeuchtigkeit
    00:00 +20°C° 0 mm 1 m/S 643 mmHg 84%
    01:00 +17°C° 0 mm 0 m/S 643 mmHg 84%
    02:00 +19°C° 0 mm 1 m/S 643 mmHg 84%
    03:00 +19°C° 0 mm 1 m/S 643 mmHg 83%
    04:00 +19°C° 0 mm 1 m/S 643 mmHg 83%
    05:00 +20°C° 0 mm 1 m/S 643 mmHg 81%
    06:00 +21°C° 0 mm 1 m/S 644 mmHg 80%
    07:00 +21°C° 0 mm 1 m/S 645 mmHg 79%
    08:00 +22°C° 0 mm 1 m/S 645 mmHg 75%
    09:00 +24°C° 0 mm 1 m/S 645 mmHg 71%
    10:00 +25°C° 0 mm 1 m/S 646 mmHg 67%
    11:00 +25°C° 0.9 mm 1 m/S 645 mmHg 68%
    12:00 +26°C° 0.9 mm 1 m/S 644 mmHg 69%
    13:00 +26°C° 0.9 mm 1 m/S 644 mmHg 71%
    14:00 +26°C° 0.9 mm 1 m/S 643 mmHg 71%
    15:00 +25°C° 0.9 mm 1 m/S 643 mmHg 71%
    16:00 +25°C° 0.9 mm 1 m/S 642 mmHg 71%
    17:00 +24°C° 0.8 mm 1 m/S 642 mmHg 75%
    18:00 +23°C° 0.8 mm 1 m/S 642 mmHg 78%
    19:00 +20°C° 0.8 mm 2 m/S 642 mmHg 82%
    20:00 +20°C° 0.7 mm 2 m/S 643 mmHg 82%
    21:00 +19°C° 0.7 mm 2 m/S 643 mmHg 82%
    22:00 +19°C° 0.7 mm 2 m/S 643 mmHg 83%
    23:00 +19°C° 0.1 mm 2 m/S 643 mmHg 82%

    27 September, Freitag

    Zeit Temperatur Niederschläge Wind Luftdruck Luftfeuchtigkeit
    00:00 +19°C° 0.1 mm 1 m/S 643 mmHg 82%
    01:00 +19°C° 0.1 mm 1 m/S 643 mmHg 81%
    02:00 +19°C° 0 mm 1 m/S 642 mmHg 82%
    03:00 +19°C° 0 mm 1 m/S 642 mmHg 82%
    04:00 +19°C° 0 mm 1 m/S 642 mmHg 83%
    05:00 +19°C° 0 mm 1 m/S 643 mmHg 81%
    06:00 +20°C° 0 mm 1 m/S 644 mmHg 79%
    07:00 +21°C° 0 mm 1 m/S 644 mmHg 78%
    08:00 +23°C° 0.2 mm 1 m/S 645 mmHg 75%
    09:00 +24°C° 0.2 mm 1 m/S 645 mmHg 72%
    10:00 +26°C° 0.2 mm 1 m/S 646 mmHg 69%
    11:00 +26°C° 0.8 mm 1 m/S 645 mmHg 70%
    12:00 +26°C° 0.8 mm 2 m/S 644 mmHg 71%
    13:00 +26°C° 0.8 mm 2 m/S 643 mmHg 72%
    14:00 +26°C° 0.8 mm 1 m/S 643 mmHg 72%
    15:00 +25°C° 0.8 mm 1 m/S 642 mmHg 72%
    16:00 +25°C° 0.8 mm 1 m/S 642 mmHg 73%
    17:00 +24°C° 0.6 mm 1 m/S 642 mmHg 77%
    18:00 +22°C° 0.6 mm 1 m/S 642 mmHg 81%
    19:00 +21°C° 0.6 mm 1 m/S 642 mmHg 85%
    20:00 +21°C° 0.1 mm 1 m/S 642 mmHg 83%
    21:00 +20°C° 0.1 mm 1 m/S 643 mmHg 81%
    22:00 +20°C° 0.1 mm 1 m/S 643 mmHg 78%
    23:00 +20°C° 0.1 mm 1 m/S 643 mmHg 80%

    28 September, Samstag

    Zeit Temperatur Niederschläge Wind Luftdruck Luftfeuchtigkeit
    00:00 +20°C° 0.1 mm 1 m/S 643 mmHg 81%
    01:00 +19°C° 0.1 mm 1 m/S 643 mmHg 82%
    02:00 +19°C° 0 mm 1 m/S 642 mmHg 82%
    03:00 +19°C° 0 mm 1 m/S 642 mmHg 83%
    04:00 +18°C° 0 mm 1 m/S 642 mmHg 84%
    05:00 +19°C° 0 mm 1 m/S 642 mmHg 82%
    06:00 +20°C° 0 mm 1 m/S 643 mmHg 79%
    07:00 +19°C° 0 mm 0 m/S 644 mmHg 76%
    08:00 +23°C° 0.1 mm 1 m/S 645 mmHg 72%
    09:00 +25°C° 0.1 mm 1 m/S 645 mmHg 67%
    10:00 +26°C° 0.1 mm 2 m/S 645 mmHg 63%
    11:00 +26°C° 0.5 mm 2 m/S 645 mmHg 66%
    12:00 +26°C° 0.5 mm 2 m/S 644 mmHg 69%
    13:00 +26°C° 0.5 mm 2 m/S 643 mmHg 73%
    14:00 +26°C° 1.2 mm 2 m/S 642 mmHg 75%
    15:00 +25°C° 1.2 mm 1 m/S 642 mmHg 77%
    16:00 +25°C° 1.2 mm 1 m/S 641 mmHg 79%
    17:00 +24°C° 1.6 mm 1 m/S 641 mmHg 82%
    18:00 +23°C° 1.6 mm 1 m/S 642 mmHg 84%
    19:00 +21°C° 1.6 mm 1 m/S 642 mmHg 86%
    20:00 +21°C° 0.9 mm 1 m/S 642 mmHg 86%
    21:00 +21°C° 0.9 mm 1 m/S 642 mmHg 86%
    22:00 +20°C° 0.9 mm 1 m/S 642 mmHg 86%
    23:00 +20°C° 0.2 mm 1 m/S 642 mmHg 87%
    Mehr zeigen